Flag for U.S.A. Weather past 2 weeks in Baltimore, Maryland, U.S.A.

Now
87 °F

Passing clouds.


Feels Like: 91 °F
Forecast: 72 / 90 °F
Wind: 10 mph from West

Location: Baltimore-Washington International Airport

Current Time: Aug 4, 2015 at 2:11:31 PM

Latest Report: Aug 4, 2015 at 12:54 PM


Visibility: 10 mi

Pressure: 29.91 "Hg

Humidity: 53%

Dew point: 68 °F

Location of BaltimoreLocation

Historic Weather in Baltimore — Graph

°F

Baltimore temperature yesterday

Maximum temperature yesterday: 91 °F (at 3:54 PM)
Minimum temperature yesterday: 66 °F (at 4:54 AM)
Average temperature yesterday: 80 °F

Past Weeks' High & Low Weather Summary

 TemperatureHumidityPressure
High94 °F (Jul 20, 3:54 PM)97% (Jul 28, 12:54 AM)30.01 "Hg (Jul 28, 12:54 AM)
Low61 °F (Jul 24, 5:54 AM)28% (Jul 24, 10:54 AM)29.61 "Hg (Jul 21, 5:54 PM)
Average78 °F65%29.90 "Hg
* Reported Jul 20 12:54 PM — Aug 4 12:54 PM, Baltimore, Weather by CustomWeather, © 2015

Note: Actual official high and low records may vary slightly from our data, if they occured in-between our weather recording intervals... More about our weather records

Advertising

Baltimore weather history for previous 24 hours

 ConditionsComfort  
Time TempWeatherWind HumidityBarometerVisibility
12:54 PM
Tue, Aug 4
87 °FPassing clouds.10 mph53%29.91 "Hg10 mi
11:54 AM86 °FPassing clouds.9 mph55%29.91 "Hg10 mi
10:54 AM83 °FPassing clouds.9 mph61%29.92 "Hg10 mi
9:54 AM79 °FPassing clouds.7 mph67%29.92 "Hg10 mi
8:54 AM75 °FPassing clouds.5 mph76%29.91 "Hg10 mi
7:54 AM71 °FScattered clouds.5 mph87%29.91 "Hg10 mi
6:54 AM67 °FPartly cloudy.No wind93%29.89 "Hg7 mi
5:54 AM68 °FPartly cloudy.3 mph87%29.88 "Hg7 mi
5:01 AM73 °FThunderstorms. Overcast.No wind78%29.89 "Hg10 mi
3:54 AM74 °FOvercast.3 mph79%29.84 "Hg10 mi
2:54 AM75 °FPassing clouds.No wind74%29.83 "Hg10 mi
1:54 AM75 °FPassing clouds.3 mph74%29.83 "Hg10 mi
12:54 AM77 °FPassing clouds.3 mph66%29.82 "Hg10 mi
11:54 PM
Mon, Aug 3
78 °FPassing clouds.5 mph66%29.82 "Hg10 mi
10:54 PM80 °FPassing clouds.7 mph62%29.81 "Hg10 mi
9:54 PM80 °FPassing clouds.3 mph60%29.82 "Hg10 mi
8:54 PM83 °FScattered clouds.5 mph53%29.81 "Hg10 mi
7:54 PM85 °FPartly sunny.6 mph50%29.80 "Hg10 mi
6:54 PM87 °FScattered clouds.8 mph45%29.80 "Hg10 mi
5:54 PM89 °FBroken clouds.7 mph38%29.80 "Hg10 mi
4:54 PM90 °FPartly sunny.8 mph33%29.80 "Hg10 mi
3:54 PM91 °FPartly sunny.8 mph33%29.80 "Hg10 mi
2:54 PM89 °FPartly sunny.8 mph34%29.81 "Hg10 mi
Weather by CustomWeather, © 2015

See weather overviewHow to use our weather pages